Погода в Акнаде

Россия / Республика Дагестан     43°22′43″N   46°54′33″E
темп.,
°C
ветер,
м/с
пор.,
м/с
влажн.,
%
обл.,
%
осадки,
мм/ч
давл.,
гПа
погр.,
м
25 июня, сб
сб2500:00+19вюв3781100 0.0 1009146
03:00+18вюв228765 0.0 100920
06:00+22вюв357267 0.0 1009368
09:00+27вюв4544100 0.0 10091399
12:00+28в5538100 0.0 10091469
15:00+29в6636100 0.0 10081401
18:00+25вюв4555100 0.3 1009493
21:00+21ссв1178100 0.9 100911
26 июня, вс
вс2600:00+20з3378100 0.0 100838
03:00+19зсз3483100 0.1 100782
06:00+20зсз3579100 0.0 1008173
09:00+27зсз4346100 0.0 10081015
12:00+30зсз133499 0.0 10061778
15:00+32всв5330100 0.0 10052191
18:00+30ссв5433100 0.0 1005870
21:00+22з6972100 0.2 1007160
27 июня, пн
пн2700:00+20зсз51184100 0.5 1008274
03:00+20з6127954 0.6 1008295
06:00+22з8116929 0.0 1009427
09:00+27зсз775449 0.0 10091092
12:00+32с444178 0.0 10092052
15:00+32ссв75361 0.0 10091754
18:00+28ссв664623 0.0 1010720
21:00+22сз476478 0.0 1011150
28 июня, вт
вт2800:00+21зсз476989 0.0 1010119
03:00+19зсз4670100 0.0 101092
06:00+22зсз575982 0.0 1009228
09:00+30с45320 0.0 10081654
12:00+33ссв76250 0.0 10082026
15:00+32ссв77290 0.0 10081855
18:00+29ссв66300 0.0 10101250
21:00+22с224653 0.0 101111
29 июня, ср
ср2900:00+21з3352100 0.0 101121
03:00+20зсз335213 0.0 101042
06:00+23зсз35463 0.0 1012174
09:00+30сз33350 0.0 10111448
12:00+32всв7533100 0.0 10102411
15:00+28в7748100 0.0 10111345
18:00+24в6663100 0.0 10131004
21:00+22в4772100 0.0 1014559